Location: Carnetin
(48.9010°N, 2.7059°E)
Time: 19:27:35
(UTC+00:00)

Cosmos 2219 Rocket - Visible Passes

Search period start: 22 May 2022 00:00
Search period end: 01 June 2022 00:00
Orbit: 829 x 845 km, 71.0° (Epoch: 22 May)

Date Brightness Start Highest point End Pass type
(mag) Time Alt. Az. Time Alt. Az. Time Alt. Az.
22 May 2.6 00:06:42 38° SSE 00:08:22 49° ESE 00:13:45 10° NE visible
22 May 3.4 01:48:24 14° WSW 01:52:32 33° NW 01:57:36 10° NNE visible
22 May 2.6 23:50:24 37° SSE 23:51:57 46° ESE 23:57:16 10° NE visible
23 May 3.3 01:32:05 16° WSW 01:36:03 35° NW 01:41:11 10° NNE visible
23 May 2.7 23:34:03 35° SE 23:35:32 43° ESE 23:40:48 10° NE visible
24 May 3.2 01:15:45 17° WSW 01:19:34 37° NW 01:24:46 10° NNE visible
24 May 4.6 03:03:26 10° NW 03:05:16 11° NNW 03:07:07 10° N visible
24 May 2.8 23:17:40 34° SE 23:19:07 40° ESE 23:24:19 10° NE visible
25 May 3.2 00:59:22 18° WSW 01:03:06 40° NW 01:08:22 10° NNE visible
25 May 4.6 02:46:38 10° NW 02:48:44 12° NNW 02:50:50 10° N visible
25 May 2.9 23:01:15 32° SE 23:02:43 37° ESE 23:07:50 10° NE visible
26 May 3.1 00:42:56 19° WSW 00:46:37 42° NW 00:51:57 10° NNE visible
26 May 4.6 02:29:52 10° NW 02:32:12 12° NNW 02:34:31 10° N visible
26 May 2.9 22:44:47 29° SE 22:46:19 35° ESE 22:51:20 10° NE visible
27 May 3.0 00:26:28 19° WSW 00:30:09 45° NW 00:35:32 10° NNE visible
27 May 4.6 02:13:07 10° WNW 02:15:39 13° NNW 02:18:12 10° N visible
27 May 3.0 22:28:16 27° SE 22:29:55 32° ESE 22:34:50 10° NE visible
28 May 2.9 00:09:56 19° WSW 00:13:41 48° NW 00:19:07 10° NNE visible
28 May 4.6 01:56:23 10° WNW 01:59:07 14° NNW 02:01:52 10° N visible
28 May 3.1 22:11:41 25° SE 22:13:31 30° ESE 22:18:19 10° NE visible
28 May 2.8 23:53:21 19° SW 23:57:13 51° NW 00:02:42 10° NNE visible
29 May 4.6 01:39:40 10° WNW 01:42:35 14° NNW 01:45:31 10° N visible
29 May 3.2 21:55:01 22° SE 21:57:07 28° ESE 22:01:49 10° NE visible
29 May 2.8 23:36:42 18° SW 23:40:45 54° WNW 23:46:16 10° NNE visible
30 May 4.6 01:22:57 10° WNW 01:26:03 15° NNW 01:29:10 10° N visible
30 May 3.3 21:38:18 19° SE 21:40:44 26° ESE 21:45:17 10° NE visible
30 May 2.7 23:19:57 16° SW 23:24:17 57° WNW 23:29:50 10° NNE visible
31 May 4.6 01:06:16 10° WNW 01:09:31 15° NNW 01:12:48 10° N visible
31 May 3.3 21:21:28 16° SE 21:24:20 24° ESE 21:28:45 10° NE visible
31 May 2.6 23:03:07 14° SW 23:07:50 61° WNW 23:13:25 10° NNE visible
